This is the latest recevied weather packets stored in our database for station/object WI5KEY. If no packets are shown the sender has not sent any weather packets the latest 10 day(s).
| Time | Temp. | Humidity | Pressure | Rain* | Wind** | Luminosity | Snow |
|---|---|---|---|---|---|---|---|
| 1777757423 | 23.33° C | 45% | 1020.5 hPa | 0 mm | - | - | - |
| 1777756529 | 23.33° C | 49% | 1020.7 hPa | 0 mm | - | - | - |
| 1777755621 | 23.33° C | 46% | 1020.9 hPa | 0 mm | - | - | - |
| 1777754719 | 23.33° C | 49% | 1021 hPa | 0 mm | - | - | - |
| 1777753817 | 22.78° C | 49% | 1021.2 hPa | 0 mm | - | - | - |
| 1777752916 | 22.78° C | 49% | 1021.3 hPa | 0 mm | - | - | - |
| 1777752017 | 22.78° C | 50% | 1021.5 hPa | 0 mm | - | - | - |
| 1777751114 | 22.78° C | 54% | 1021.5 hPa | 0 mm | - | - | - |
| 1777750213 | 22.78° C | 51% | 1021.6 hPa | 0 mm | - | - | - |
| 1777749317 | 22.22° C | 55% | 1021.7 hPa | 0 mm | - | - | - |
| 1777748412 | 22.22° C | 53% | 1021.7 hPa | 0 mm | - | - | - |
| 1777747507 | 21.67° C | 55% | 1021.9 hPa | 0 mm | - | - | - |
| 1777746605 | 21.67° C | 56% | 1022.1 hPa | 0 mm | - | - | - |
| 1777745704 | 21.67° C | 55% | 1022.2 hPa | 0 mm | - | - | - |
| 1777744805 | 21.11° C | 54% | 1022.5 hPa | 0 mm | - | - | - |
| 1777743901 | 21.11° C | 53% | 1022.7 hPa | 0 mm | - | - | - |
| 1777743059 | 21.11° C | 57% | 1023 hPa | 0 mm | - | - | - |
| 1777742156 | 20.56° C | 58% | 1023.3 hPa | 0 mm | - | - | - |
| 1777741260 | 20.56° C | 57% | 1023.4 hPa | 0 mm | - | - | - |
| 1777740369 | 20° C | 59% | 1023.4 hPa | 0 mm | - | - | - |
| 1777739451 | 19.44° C | 59% | 1023.4 hPa | 0 mm | - | - | - |
| 1777738548 | 18.89° C | 61% | 1023.4 hPa | 0 mm | - | - | - |
| 1777737651 | 18.89° C | 63% | 1023.3 hPa | 0 mm | - | - | - |
| 1777736744 | 18.33° C | 65% | 1023 hPa | 0 mm | - | - | - |
| 1777735845 | 17.78° C | 68% | 1022.9 hPa | 0 mm | - | - | - |
* Rain latest hour (hover to see other rain measurements)
** Current wind speed in m/s (hover to see current wind gust speed)